Time,TemperatureF,DewpointF,PressureIn,WindDirection,WindDirectionDegrees,WindSpeedMPH,WindSpeedGustMPH,Humidity,HourlyPrecipIn,Conditions,Clouds,dailyrainin,SolarRadiationWatts/m^2,SoftwareType,DateUTC
2013-03-09 00:02:00,29.0,23.0,-100.00,ESE,116,4.0,7.0,78,0.00,,,0.00,0.000000,,2013-03-09 06:02:00,
2013-03-09 00:32:00,29.0,24.0,-100.00,SE,133,4.0,6.0,80,0.00,,,0.00,0.000000,,2013-03-09 06:32:00,
2013-03-09 00:42:00,29.0,24.0,-100.00,SE,133,4.0,6.0,80,0.00,,,0.00,0.000000,,2013-03-09 06:42:00,
2013-03-09 00:52:00,29.0,24.0,-100.00,SE,133,4.0,6.0,80,0.00,,,0.00,0.000000,,2013-03-09 06:52:00,
2013-03-09 01:01:00,29.0,24.0,-100.00,SE,133,4.0,6.0,80,0.00,,,0.00,0.000000,,2013-03-09 07:01:00,
2013-03-09 01:32:00,30.0,25.0,-100.00,SSE,150,5.0,7.0,82,0.00,,,0.00,0.000000,,2013-03-09 07:32:00,
2013-03-09 01:42:00,30.0,25.0,-100.00,SSE,150,5.0,7.0,82,0.00,,,0.00,0.000000,,2013-03-09 07:42:00,
2013-03-09 01:52:00,30.0,25.0,-100.00,SSE,150,5.0,7.0,82,0.00,,,0.00,0.000000,,2013-03-09 07:52:00,
2013-03-09 02:01:00,30.0,25.0,-100.00,SSE,150,5.0,7.0,82,0.00,,,0.00,0.000000,,2013-03-09 08:01:00,
2013-03-09 02:32:00,32.0,26.0,-100.00,SE,124,7.0,9.0,78,0.00,,,0.00,0.000000,,2013-03-09 08:32:00,
2013-03-09 02:42:00,32.0,26.0,-100.00,SE,124,7.0,9.0,78,0.00,,,0.00,0.000000,,2013-03-09 08:42:00,
2013-03-09 02:52:00,32.0,26.0,-100.00,SE,124,7.0,9.0,78,0.00,,,0.00,0.000000,,2013-03-09 08:52:00,
2013-03-09 03:01:00,32.0,26.0,-100.00,SE,124,7.0,9.0,78,0.00,,,0.00,0.000000,,2013-03-09 09:01:00,
2013-03-09 03:32:00,32.0,29.0,-100.00,ESE,123,5.0,10.0,88,0.01,,,0.01,0.000000,,2013-03-09 09:32:00,
2013-03-09 03:42:00,32.0,29.0,-100.00,ESE,123,5.0,10.0,88,0.01,,,0.01,0.000000,,2013-03-09 09:42:00,
2013-03-09 03:52:00,32.0,29.0,-100.00,ESE,123,5.0,10.0,88,0.01,,,0.01,0.000000,,2013-03-09 09:52:00,
2013-03-09 04:01:00,32.0,29.0,-100.00,ESE,123,5.0,10.0,88,0.01,,,0.01,0.000000,,2013-03-09 10:01:00,
2013-03-09 04:32:00,31.0,30.0,-100.00,ESE,122,5.0,8.0,95,0.00,,,0.01,0.000000,,2013-03-09 10:32:00,
2013-03-09 04:42:00,31.0,30.0,-100.00,ESE,122,5.0,8.0,95,0.00,,,0.01,0.000000,,2013-03-09 10:42:00,
2013-03-09 04:52:00,31.0,30.0,-100.00,ESE,122,5.0,8.0,95,0.00,,,0.01,0.000000,,2013-03-09 10:52:00,
2013-03-09 05:01:00,31.0,30.0,-100.00,ESE,122,5.0,8.0,95,0.00,,,0.01,0.000000,,2013-03-09 11:01:00,
2013-03-09 05:32:00,32.0,31.0,-100.00,SE,140,6.0,9.0,96,0.00,,,0.01,0.000000,,2013-03-09 11:32:00,
2013-03-09 05:42:00,32.0,31.0,-100.00,SE,140,6.0,9.0,96,0.00,,,0.01,0.000000,,2013-03-09 11:42:00,
2013-03-09 05:52:00,32.0,31.0,-100.00,SE,140,6.0,9.0,96,0.00,,,0.01,0.000000,,2013-03-09 11:52:00,
2013-03-09 06:01:00,32.0,31.0,-100.00,SE,140,6.0,9.0,96,0.00,,,0.01,0.000000,,2013-03-09 12:01:00,
2013-03-09 06:32:00,32.0,31.0,-100.00,SE,140,4.0,9.0,97,0.00,,,0.01,0.000000,,2013-03-09 12:32:00,
2013-03-09 06:42:00,32.0,31.0,-100.00,SE,140,4.0,9.0,97,0.00,,,0.01,0.000000,,2013-03-09 12:42:00,
2013-03-09 06:52:00,32.0,31.0,-100.00,SE,140,4.0,9.0,97,0.00,,,0.01,0.000000,,2013-03-09 12:52:00,
2013-03-09 07:02:00,32.0,31.0,-100.00,SE,140,4.0,9.0,97,0.00,,,0.01,0.000000,,2013-03-09 13:02:00,
2013-03-09 07:32:00,32.0,32.0,-100.00,SE,143,5.0,8.0,98,0.00,,,0.01,1.000000,,2013-03-09 13:32:00,
2013-03-09 07:42:00,32.0,32.0,-100.00,SE,143,5.0,8.0,98,0.00,,,0.01,1.000000,,2013-03-09 13:42:00,
2013-03-09 07:52:00,32.0,32.0,-100.00,SE,143,5.0,8.0,98,0.00,,,0.01,1.000000,,2013-03-09 13:52:00,
2013-03-09 08:01:00,32.0,32.0,-100.00,SE,143,5.0,8.0,98,0.00,,,0.01,1.000000,,2013-03-09 14:01:00,
2013-03-09 08:32:00,33.0,32.0,-100.00,SE,144,6.0,9.0,98,0.00,,,0.01,21.000000,,2013-03-09 14:32:00,
2013-03-09 08:42:00,33.0,32.0,-100.00,SE,144,6.0,9.0,98,0.00,,,0.01,21.000000,,2013-03-09 14:42:00,
2013-03-09 08:52:00,33.0,32.0,-100.00,SE,144,6.0,9.0,98,0.00,,,0.01,21.000000,,2013-03-09 14:52:00,
2013-03-09 09:02:00,33.0,32.0,-100.00,SE,144,6.0,9.0,98,0.00,,,0.01,21.000000,,2013-03-09 15:02:00,
2013-03-09 09:32:00,33.0,32.0,-100.00,SE,124,6.0,9.0,97,0.00,,,0.01,42.000000,,2013-03-09 15:32:00,
2013-03-09 09:42:00,33.0,32.0,-100.00,SE,124,6.0,9.0,97,0.00,,,0.01,42.000000,,2013-03-09 15:42:00,
2013-03-09 09:52:00,33.0,32.0,-100.00,SE,124,6.0,9.0,97,0.00,,,0.01,42.000000,,2013-03-09 15:52:00,
2013-03-09 10:01:00,33.0,32.0,-100.00,SE,124,6.0,9.0,97,0.00,,,0.01,42.000000,,2013-03-09 16:01:00,
2013-03-09 10:32:00,34.0,33.0,-100.00,SE,138,5.0,10.0,96,0.00,,,0.01,97.000000,,2013-03-09 16:32:00,
2013-03-09 10:42:00,34.0,33.0,-100.00,SE,138,5.0,10.0,96,0.00,,,0.01,97.000000,,2013-03-09 16:42:00,
2013-03-09 10:52:00,34.0,33.0,-100.00,SE,138,5.0,10.0,96,0.00,,,0.01,97.000000,,2013-03-09 16:52:00,
2013-03-09 11:01:00,34.0,33.0,-100.00,SE,138,5.0,10.0,96,0.00,,,0.01,97.000000,,2013-03-09 17:01:00,
2013-03-09 11:32:00,34.0,33.0,-100.00,SSE,153,7.0,10.0,96,0.00,,,0.01,81.000000,,2013-03-09 17:32:00,
2013-03-09 11:42:00,34.0,33.0,-100.00,SSE,153,7.0,10.0,96,0.00,,,0.01,81.000000,,2013-03-09 17:42:00,
2013-03-09 11:52:00,34.0,33.0,-100.00,SSE,153,7.0,10.0,96,0.00,,,0.01,81.000000,,2013-03-09 17:52:00,
2013-03-09 12:01:00,34.0,33.0,-100.00,SSE,153,7.0,10.0,96,0.00,,,0.01,81.000000,,2013-03-09 18:01:00,
2013-03-09 12:32:00,34.0,33.0,-100.00,SE,145,5.0,10.0,96,0.08,,,0.09,90.000000,,2013-03-09 18:32:00,
2013-03-09 12:42:00,34.0,33.0,-100.00,SE,145,5.0,10.0,96,0.08,,,0.09,90.000000,,2013-03-09 18:42:00,
2013-03-09 12:52:00,34.0,33.0,-100.00,SE,145,5.0,10.0,96,0.08,,,0.09,90.000000,,2013-03-09 18:52:00,
2013-03-09 13:01:00,34.0,33.0,-100.00,SE,145,5.0,10.0,96,0.08,,,0.09,90.000000,,2013-03-09 19:01:00,
2013-03-09 13:32:00,34.0,33.0,-100.00,SE,137,4.0,8.0,95,0.09,,,0.18,99.000000,,2013-03-09 19:32:00,
2013-03-09 13:42:00,34.0,33.0,-100.00,SE,137,4.0,8.0,95,0.09,,,0.18,99.000000,,2013-03-09 19:42:00,
2013-03-09 13:52:00,34.0,33.0,-100.00,SE,137,4.0,8.0,95,0.09,,,0.18,99.000000,,2013-03-09 19:52:00,
2013-03-09 14:01:00,34.0,33.0,-100.00,SE,137,4.0,8.0,95,0.09,,,0.18,99.000000,,2013-03-09 20:01:00,
2013-03-09 14:32:00,34.0,33.0,-100.00,East,81,3.0,5.0,95,0.02,,,0.20,72.000000,,2013-03-09 20:32:00,
2013-03-09 14:42:00,34.0,33.0,-100.00,East,81,3.0,5.0,95,0.02,,,0.20,72.000000,,2013-03-09 20:42:00,
2013-03-09 14:52:00,34.0,33.0,-100.00,East,81,3.0,5.0,95,0.02,,,0.20,72.000000,,2013-03-09 20:52:00,
2013-03-09 15:02:00,34.0,33.0,-100.00,East,81,3.0,5.0,95,0.02,,,0.20,72.000000,,2013-03-09 21:02:00,
2013-03-09 15:32:00,33.0,32.0,-100.00,NE,56,4.0,5.0,96,0.01,,,0.21,38.000000,,2013-03-09 21:32:00,
2013-03-09 15:42:00,33.0,32.0,-100.00,NE,56,4.0,5.0,96,0.01,,,0.21,38.000000,,2013-03-09 21:42:00,
2013-03-09 15:52:00,33.0,32.0,-100.00,NE,56,4.0,5.0,96,0.01,,,0.21,38.000000,,2013-03-09 21:52:00,
2013-03-09 16:01:00,33.0,32.0,-100.00,NE,56,4.0,5.0,96,0.01,,,0.21,38.000000,,2013-03-09 22:01:00,
2013-03-09 16:32:00,33.0,32.0,-100.00,NE,45,2.0,5.0,96,0.00,,,0.21,16.000000,,2013-03-09 22:32:00,
2013-03-09 16:42:00,33.0,32.0,-100.00,NE,45,2.0,5.0,96,0.00,,,0.21,16.000000,,2013-03-09 22:42:00,
2013-03-09 16:52:00,33.0,32.0,-100.00,NE,45,2.0,5.0,96,0.00,,,0.21,16.000000,,2013-03-09 22:52:00,
2013-03-09 17:01:00,33.0,32.0,-100.00,NE,45,2.0,5.0,96,0.00,,,0.21,16.000000,,2013-03-09 23:01:00,
2013-03-09 17:32:00,33.0,32.0,-100.00,NNE,23,4.0,5.0,97,0.00,,,0.21,11.000000,,2013-03-09 23:32:00,
2013-03-09 17:42:00,33.0,32.0,-100.00,NNE,23,4.0,5.0,97,0.00,,,0.21,11.000000,,2013-03-09 23:42:00,
2013-03-09 17:52:00,33.0,32.0,-100.00,NNE,23,4.0,5.0,97,0.00,,,0.21,11.000000,,2013-03-09 23:52:00,
2013-03-09 18:01:00,33.0,32.0,-100.00,NNE,23,4.0,5.0,97,0.00,,,0.21,11.000000,,2013-03-10 00:01:00,
2013-03-09 18:32:00,32.0,32.0,-100.00,North,357,4.0,5.0,98,0.00,,,0.21,3.000000,,2013-03-10 00:32:00,
2013-03-09 18:43:00,32.0,32.0,-100.00,North,357,4.0,5.0,98,0.00,,,0.21,3.000000,,2013-03-10 00:43:00,
2013-03-09 18:52:00,32.0,32.0,-100.00,North,357,4.0,5.0,98,0.00,,,0.21,3.000000,,2013-03-10 00:52:00,
2013-03-09 19:01:00,32.0,32.0,-100.00,North,357,4.0,5.0,98,0.00,,,0.21,3.000000,,2013-03-10 01:01:00,
2013-03-09 19:32:00,32.0,32.0,-100.00,North,359,6.0,8.0,99,0.00,,,-99.99,0.000000,,2013-03-10 01:32:00,
2013-03-09 19:42:00,32.0,32.0,-100.00,North,359,6.0,8.0,99,0.00,,,-99.99,0.000000,,2013-03-10 01:42:00,
2013-03-09 19:52:00,32.0,32.0,-100.00,North,359,6.0,8.0,99,0.00,,,-99.99,0.000000,,2013-03-10 01:52:00,
2013-03-09 20:01:00,32.0,32.0,-100.00,North,359,6.0,8.0,99,0.00,,,-99.99,0.000000,,2013-03-10 02:01:00,
2013-03-09 20:32:00,32.0,32.0,-100.00,North,351,6.0,9.0,99,0.00,,,-99.99,0.000000,,2013-03-10 02:32:00,
2013-03-09 20:42:00,32.0,32.0,-100.00,North,351,6.0,9.0,99,0.00,,,-99.99,0.000000,,2013-03-10 02:42:00,
2013-03-09 20:52:00,32.0,32.0,-100.00,North,351,6.0,9.0,99,0.00,,,-99.99,0.000000,,2013-03-10 02:52:00,
2013-03-09 21:01:00,32.0,32.0,-100.00,North,351,6.0,9.0,99,0.00,,,-99.99,0.000000,,2013-03-10 03:01:00,
2013-03-09 21:32:00,33.0,33.0,-100.00,North,355,9.0,13.0,99,0.00,,,0.21,0.000000,,2013-03-10 03:32:00,
2013-03-09 21:42:00,33.0,33.0,-100.00,North,355,9.0,13.0,99,0.00,,,0.21,0.000000,,2013-03-10 03:42:00,
2013-03-09 21:52:00,33.0,33.0,-100.00,North,355,9.0,13.0,99,0.00,,,0.21,0.000000,,2013-03-10 03:52:00,
2013-03-09 22:01:00,33.0,33.0,-100.00,North,355,9.0,13.0,99,0.00,,,0.21,0.000000,,2013-03-10 04:01:00,
2013-03-09 22:32:00,33.0,32.0,-100.00,NNW,347,8.0,15.0,96,0.00,,,0.21,0.000000,,2013-03-10 04:32:00,
2013-03-09 22:42:00,33.0,32.0,-100.00,NNW,347,8.0,15.0,96,0.00,,,0.21,0.000000,,2013-03-10 04:42:00,
2013-03-09 22:52:00,33.0,32.0,-100.00,NNW,347,8.0,15.0,96,0.00,,,0.21,0.000000,,2013-03-10 04:52:00,
2013-03-09 23:01:00,33.0,32.0,-100.00,NNW,347,8.0,15.0,96,0.00,,,0.21,0.000000,,2013-03-10 05:01:00,
2013-03-09 23:32:00,32.0,30.0,-100.00,NNW,347,9.0,15.0,93,0.00,,,0.21,0.000000,,2013-03-10 05:32:00,
2013-03-09 23:42:00,32.0,30.0,-100.00,NNW,347,9.0,15.0,93,0.00,,,0.21,0.000000,,2013-03-10 05:42:00,
2013-03-09 23:52:00,32.0,30.0,-100.00,NNW,347,9.0,15.0,93,0.00,,,0.21,0.000000,,2013-03-10 05:52:00,